{"data":{"norad_id":58835,"epoch":"2026-09-20T11:52:24.794688Z","epoch_age_seconds":152947,"freshness":"FRESH","line1":"1 58835U 24017K   26263.49473142  .00001117  00000+0  44213-4 0  9993","line2":"2 58835  53.1573  17.9197 0002012 111.9667 248.1550 15.34390531149907","mean_motion":15.34390531,"eccentricity":0.0002012,"inclination_deg":53.1573,"raan_deg":17.9197,"arg_perigee_deg":111.9667,"mean_anomaly_deg":248.155,"bstar":4.4213e-5,"rev_number":14990,"period_min":93.848337232733,"perigee_km":461.35500149644,"apogee_km":464.10776693424,"semimajor_km":6840.8683842153,"source":"CELESTRAK","updated_at":"2026-09-21T09:00:33.984405Z"}}